Regional Weather Roundup
Issued by NWS

Home | Current Version | Previous Version | Graphics & Text | Print | Product List | Glossary On
Versions: 1 2 3 4 5 6 7 8 9 10 11 12 13 14 15 16 17 18 19 20 21 22 23 24 25 26 27 28 29 30 31 32 33 34 35 36 37 38 39 40 41 42 43 44 45 46 47 48 49 50
000
ASUS43 KMPX 271501
RWRMN
WEATHER ROUNDUP FOR MINNESOTA
NATIONAL WEATHER SERVICE TWIN CITIES/CHANHASSEN MN
1000 AM CDT FRI MAY 27 2016


NOTE: "FAIR" INDICATES FEW OR NO CLOUDS BELOW 12,000 FEET WITH NO
SIGNIFICANT WEATHER AND/OR OBSTRUCTIONS TO VISIBILITY. N/A MEANS
CURRENT SKY AND/OR WEATHER CONDITIONS ARE NOT AVAILABLE.

MNZ060>063-068>070-271600-
   Twin Cities Metro

CITY           SKY/WX    TMP DP  RH WIND       PRES   REMARKS
TWIN CITIES    LGT RAIN  66  58  75 SE14      29.83R
ST PAUL        LGT RAIN  65  60  84 E12       29.84R
CRYSTAL        CLOUDY    68  56  65 SE10G24   29.80R
BLAINE         LGT RAIN  68  57  68 SE16G22   29.82R
EDEN PRAIRIE   CLOUDY    68  57  68 SE16      29.80R
SOUTH ST PAUL  CLOUDY    65  59  80 E6        29.84R
LAKE ELMO      LGT RAIN  63  61  94 E8        29.86R
$$
MNZ001>005-007-008-013>017-022>024-027-028-271600-
   Northwest Minnesota

CITY           SKY/WX    TMP DP  RH WIND       PRES   REMARKS
BEMIDJI        CLOUDY    64  53  66 E6        29.82S
HALLOCK        PTSUNNY   63  55  77 SE3       29.80S
ROSEAU         SUNNY     61  55  82 S3        29.82S
WARROAD        SUNNY     61  57  88 SE3       29.83S
THIEF RVR FALL PTSUNNY   63  54  72 CALM      29.83S
CROOKSTON      MOSUNNY   64  55  72 CALM      29.81S
FOSSTON        PTSUNNY   66  61  82 CALM      29.82R
DETROIT LAKES  MOSUNNY   70  52  52 E3        29.81R
MOORHEAD       MOSUNNY   66  59  77 N6        29.80R
PARK RAPIDS    CLOUDY    65  53  65 E10       29.81R
MAHNOMEN       FAIR      68  57  69 CALM      29.79F
$$
MNZ006-009>011-018-025>026-271600-
   North Central Minnesota

CITY           SKY/WX    TMP DP  RH WIND       PRES   REMARKS
BAUDETTE       MOSUNNY   63  55  75 E6        29.84R
FLAG ISLAND    SUNNY     61  55  82 S8        29.81R
INTL FALLS     SUNNY     67  53  61 NE3       29.85R
WASKISH        MOSUNNY   70  55  60 E6        29.83S
BIG FORK       CLOUDY    64  55  72 E3        29.85S
LONGVILLE      CLOUDY    61  54  77 E3        29.83R
GRAND RAPIDS   CLOUDY    61  52  72 E6        29.87R
CRANE LAKE     CLOUDY    61  55  82 CALM      29.88S
ORR            CLOUDY    63  54  72 CALM      29.85R
COOK           CLOUDY    61  55  82 CALM      29.87S
WALKER         CLOUDY    61  54  78 E7        29.82S
$$
MNZ012-019>021-037-271600-
   Northeast Minnesota

CITY           SKY/WX    TMP DP  RH WIND       PRES   REMARKS
DULUTH         CLOUDY    58  51  78 E8        29.88S
ELY            CLOUDY    66  54  63 E7        29.88S
HIBBING        CLOUDY    58  54  86 SE6       29.87R
EVELETH        CLOUDY    59  52  77 CALM      29.89R
DULUTH HARBOR  CLOUDY    45  45 100 NE10      29.90S
TWO HARBORS    CLOUDY    57  52  82 CALM      29.88R
SILVER BAY     CLOUDY    64  54  68 CALM      29.88R
GRAND MARAIS     N/A     42  42 100 SE3       29.93R
G MARAIS ARPRT CLOUDY    64  54  68 SE5       29.92R
$$
MNZ029>031-032-039>041-046>048-054>057-064-271600-
   West Central Minnesota

CITY           SKY/WX    TMP DP  RH WIND       PRES   REMARKS
FERGUS FALLS   MOSUNNY   72  50  46 NE8       29.74S
WHEATON        CLOUDY    73  55  53 NE12      29.78S
MORRIS         PTSUNNY   66  55  68 NE5       29.75F
ALEXANDRIA     CLOUDY    63  55  75 NE5       29.79R
ELBOW LAKE     CLOUDY    66  53  63 E9        29.78R
WADENA         PTSUNNY   61  52  72 NE6       29.79S
GLENWOOD       CLOUDY    68  59  73 E7        29.78R
APPLETON       PTSUNNY   66  57  72 NE3       29.75S
BENSON         CLOUDY    64  57  77 SE3       29.76R
ORTONVILLE     CLOUDY    66  52  59 NE7       29.76S
MADISON        CLOUDY    64  54  68 N5        29.75S
WILLMAR        FAIR      70  57  64 SE13G18   29.77S
$$
MNZ033>034-036-042>043-049>051-058-059-271600-
   Central Minnesota

CITY           SKY/WX    TMP DP  RH WIND       PRES   REMARKS
ST CLOUD       LGT RAIN  67  57  70 SE12      29.80R
SAUK CENTRE    FAIR      67  59  74 SE8       29.77S
PAYNESVILLE    PTSUNNY   68  56  65 SE13      29.78R
AITKIN         MIX PCPN  64  55  72 SE3       29.82R
PINE RIVER     LGT RAIN  61  54  77 E6        29.86R
BRAINERD       LGT RAIN  63  56  78 VRB5      29.82R
STAPLES        CLOUDY    63  52  67 E5        29.80R
LITTLE FALLS   CLOUDY    66  54  63 SE9       29.79S
LITCHFIELD     LGT RAIN  66  61  82 SE7       29.80R
BUFFALO        LGT RAIN  65  57  75 SE3       29.82R
MAPLE LAKE     LGT RAIN  67  60  76 S5        29.81R
HUTCHINSON     LGT RAIN  66  60  80 SE3       29.81R
$$
MNZ037-044-045-052-053-271600-
   East Central Minnesota

CITY           SKY/WX    TMP DP  RH WIND       PRES   REMARKS
PRINCETON      LGT RAIN  66  61  82 SE9       29.83R
MORA           LGT RAIN  59  54  82 E3        29.84S
CAMBRIDGE      LGT RAIN  68  55  64 SE10G18   29.81R
RUSH CITY      CLOUDY    64  58  80 SE7       29.84R
MOOSE LAKE     LGT RAIN  55  54  94 NE3       29.85R
HINCKLEY       LGT RAIN  61  59  94 SE3       29.85R
CLOQUET        RAIN      55  50  82 SE3       29.88R
MCGREGOR       CLOUDY    59  55  88 E3        29.86S
$$
MNZ071>073-080-081-089-090-097-098-271600-
   Southwest Minnesota

CITY           SKY/WX    TMP DP  RH WIND       PRES   REMARKS
MONTEVIDEO     PTSUNNY   70  55  60 CALM      29.77S
GRANITE FALLS  CLOUDY    70  58  65 SE10      29.77R
CANBY          CLOUDY    67  57  69 CALM      29.78R
MARSHALL       CLOUDY    67  57  70 S10       29.78R
REDWOOD FALLS  CLOUDY    67  56  67 SE15      29.77R
OLIVIA         CLOUDY    63  54  72 S8        29.77R
PIPESTONE      RAIN      63  57  82 SW7       29.80R
WINDOM         CLOUDY    64  57  77 SE6       29.79S
WORTHINGTON    CLOUDY    63  57  81 SE7       29.80R
JACKSON        CLOUDY    64  55  72 SE12      29.80S
TRACY          LGT RAIN  67  57  70 S8        29.79R
SLAYTON        LGT RAIN  64  55  74 S7        29.81R
$$
MNZ065>067-074>077-082>085-091>093-271600-
   South Central Minnesota

CITY           SKY/WX    TMP DP  RH WIND       PRES   REMARKS
MANKATO        CLOUDY    66  55  68 S12       29.80R
NEW ULM        LGT RAIN  64  61  88 S7        29.80R
ST JAMES       LGT RAIN  61  55  82 SE8       29.80F
FAIRMONT       CLOUDY    63  57  82 SE13      29.79F
GLENCOE        RAIN      67  62  84 S3        29.80R
FARIBAULT      CLOUDY    64  61  88 E15       29.83R
OWATONNA       RAIN      63  59  88 SE8       29.84R
WASECA         LGT RAIN  63  55  77 SE16      29.83R
ALBERT LEA     RAIN      63  61  94 SE8       29.83R
$$
MNZ078>079-086>088-094>096-271600-
   Southeast Minnesota

CITY           SKY/WX    TMP DP  RH WIND       PRES   REMARKS
ROCHESTER      CLOUDY    64  61  90 NE6       29.84S
RED WING       LGT RAIN  63  61  94 CALM      29.83F
STANTON        CLOUDY    66  58  74 SE7       29.83R
DODGE CENTER   CLOUDY    64  57  77 SE5       29.84R
WINONA         CLOUDY    68  64  88 CALM      29.82S
AUSTIN         CLOUDY    63  59  88 CALM      29.82S
PRESTON        PTSUNNY   64  60  87 NE5       29.84S
$$
ABBREVIATIONS USED IN REMARKS
   TC - TEMPERATURES IN CELSIUS
  WCI - WIND CHILL INDEX
   HX - HEAT INDEX
  VSB - VISIBILITY
$$




USA.gov is the U.S. government's official web portal to all federal, state and local government web resources and services.